GFSFLT2_prec_cthk_198.txt.gz
RH
46 45 45 42 40 41 44 37 32 27 25 25 26 26 25 23 23 24 25 25 25 26 28 29 31 33 34 33 33 33 35 40
44 43 43 40 42 47 46 37 30 28 26 26 26 26 24 22 21 22 22 22 21 21 21 22 22 24 30 32 34 34 36 38
52 48 46 45 48 49 45 39 32 29 29 26 26 25 23 21 20 20 19 19 19 19 18 18 18 17 17 23 28 32 33 35
45 56 48 45 51 48 46 40 33 30 30 26 25 24 24 22 20 20 21 20 19 19 19 20 20 20 18 19 20 23 26 28
42 48 47 45 47 47 45 41 35 32 30 27 25 22 24 22 21 20 20 21 20 19 19 20 22 23 23 21 21 21 21 20
36 42 41 41 44 44 46 43 38 33 30 27 24 23 24 23 22 22 22 22 20 20 20 22 23 24 24 23 23 23 22 21
35 39 39 38 40 44 46 42 38 33 31 28 25 24 25 26 25 24 23 23 22 22 22 22 22 24 24 23 25 24 24 23
27 37 43 42 42 42 41 42 39 33 30 29 26 25 26 26 28 27 26 25 23 23 22 21 21 21 22 23 23 25 25 25
24 23 29 36 42 44 44 43 41 37 32 30 26 25 27 27 29 29 27 26 25 24 23 22 23 24 24 25 26 27 28 28
27 26 26 30 32 36 42 42 41 40 35 29 26 25 28 27 30 31 29 28 27 25 24 25 25 26 26 27 28 30 31 31
28 30 30 32 35 37 37 38 39 39 37 31 28 26 27 28 30 32 31 30 28 26 26 27 28 28 29 30 30 31 32 33
30 32 33 35 40 42 45 46 42 39 37 34 31 31 29 29 30 30 29 30 29 29 30 30 31 31 32 33 34 34 35 36
29 31 31 35 38 43 46 42 43 43 40 40 36 35 32 32 32 29 29 30 29 29 31 33 34 35 35 39 39 41 41 40
25 29 34 35 37 41 47 48 48 49 49 48 45 41 38 38 36 33 33 34 34 33 33 34 37 37 37 40 45 46 46 44
22 24 29 33 36 42 48 50 50 52 52 52 50 47 45 44 41 38 38 39 39 37 36 36 36 39 39 39 47 48 49 50
25 27 29 34 39 47 51 52 51 52 55 59 59 55 51 49 47 44 45 44 43 44 43 42 40 40 42 42 44 44 50 55
32 38 35 37 39 46 53 65 67 67 70 70 66 63 57 55 53 52 50 50 50 50 49 50 48 47 47 46 48 50 50 52
44 47 46 47 51 56 61 71 75 77 81 89 82 70 65 60 58 57 58 57 59 59 56 55 55 53 55 54 53 54 55 55
56 60 62 64 65 70 81 81 83 84 76 84 89 79 72 69 68 66 67 65 67 67 63 61 61 62 60 58 57 58 59 62
59 64 72 78 84 90 95 94 93 89 86 85 82 83 83 78 79 81 78 74 70 74 71 66 64 67 66 65 63 61 64 67

GFSFLT2_prec_cthk_201.txt.gz
RH
45 47 44 42 44 45 44 47 47 40 34 30 27 26 26 26 26 25 25 27 27 27 28 28 30 31 32 32 34 34 38 40
44 44 45 46 45 45 44 49 47 40 34 30 28 27 25 26 26 25 23 25 25 25 25 26 27 28 30 31 31 32 37 40
48 46 44 42 44 44 46 54 50 41 33 31 29 26 24 25 24 24 22 22 22 21 20 21 21 22 25 29 31 31 34 36
43 47 45 49 46 45 49 53 48 39 33 30 28 27 25 24 24 23 22 21 20 19 19 19 19 20 21 24 27 29 31 32
34 42 46 44 46 42 46 48 46 39 35 31 29 27 25 24 24 23 22 21 20 19 19 19 20 21 21 21 24 26 26 26
31 33 38 42 46 42 45 45 44 41 36 32 30 27 26 24 24 25 24 23 22 21 19 20 21 23 24 23 23 23 23 23
31 30 31 38 43 40 44 45 47 45 39 34 31 27 27 25 25 24 26 25 23 23 22 22 22 24 25 25 25 26 25 24
29 29 30 35 41 41 43 45 48 47 42 36 33 29 28 27 25 25 25 27 27 26 25 23 22 23 25 24 25 25 25 25
27 28 30 29 36 44 46 46 48 47 44 40 36 31 29 30 28 27 27 28 29 28 27 25 23 23 23 24 27 27 27 27
29 30 31 32 31 34 39 44 48 51 49 45 41 36 30 31 31 29 28 29 30 29 27 26 26 24 25 26 28 29 29 29
29 27 26 28 32 37 40 43 44 46 49 48 44 39 33 31 32 31 31 31 32 31 30 28 28 29 30 30 29 29 30 31
32 32 33 34 35 37 41 46 46 46 49 49 45 41 35 31 34 33 32 32 33 34 35 34 33 34 35 35 35 33 33 33
36 34 34 36 35 36 37 37 40 46 49 51 51 46 40 35 34 36 36 36 35 35 34 36 40 39 40 41 40 38 38 38
40 39 42 38 36 36 40 42 43 45 49 55 54 51 46 41 38 37 39 38 37 36 35 38 43 45 44 44 45 44 43 44
33 35 37 38 40 39 40 43 47 50 51 52 53 53 52 49 46 43 43 41 38 38 38 40 44 48 47 44 48 48 48 50
32 29 31 39 42 44 41 35 36 41 50 58 60 56 56 57 54 49 47 46 44 43 44 45 46 49 51 48 47 47 50 53
31 36 40 43 45 47 49 51 51 48 50 56 61 65 69 66 64 57 52 50 49 48 49 49 49 50 52 53 53 53 52 54
28 33 38 46 50 50 48 55 61 62 63 65 68 72 77 78 83 76 63 58 53 54 54 54 54 56 58 58 58 58 57 56
26 31 36 42 49 55 55 57 60 68 77 79 75 79 86 86 90 83 84 75 66 59 60 58 59 60 62 66 67 65 65 64
27 26 34 41 44 51 57 57 61 67 71 84 93 92 97 94 89 86 83 83 77 71 70 70 68 63 64 63 68 71 69 72

GFSFLT2_prec_cthk_204.txt.gz
RH
42 46 47 45 41 42 43 47 47 47 43 42 36 31 28 27 25 27 27 27 30 29 30 29 30 31 33 34 35 35 37 40
42 45 48 51 48 44 45 47 47 48 47 42 37 32 29 28 24 25 26 25 27 27 27 28 28 28 30 32 33 35 36 41
44 43 46 49 49 48 48 49 49 52 52 42 35 32 30 29 26 25 25 25 25 23 25 25 25 26 27 29 32 33 36 38
39 41 47 47 49 50 48 46 50 58 51 40 35 34 33 30 27 26 26 26 23 21 20 21 21 21 23 25 28 31 33 34
36 35 35 41 44 45 50 45 47 54 49 39 37 36 34 32 29 26 26 26 24 22 20 19 19 20 20 22 26 28 29 30
33 33 34 33 35 40 47 46 47 51 49 43 38 35 34 33 32 29 26 26 25 24 23 22 21 21 22 22 25 26 27 26
32 34 33 32 34 38 43 45 45 51 51 49 41 37 36 34 32 32 28 27 26 25 25 24 23 24 25 24 24 25 25 25
29 31 34 36 35 36 45 46 47 53 54 54 49 41 38 34 31 32 31 28 28 27 27 27 27 26 26 26 26 26 26 25
29 30 32 33 34 36 39 50 51 54 57 57 54 46 39 36 32 28 29 29 28 29 31 31 29 29 28 28 27 27 27 27
32 31 30 32 34 36 39 39 42 46 50 54 56 54 45 39 35 32 31 29 29 30 31 33 30 29 30 29 31 31 30 30
41 43 42 40 39 38 37 39 42 44 47 46 47 51 51 43 36 36 34 33 32 30 30 31 30 30 31 33 35 35 35 33
36 40 43 42 41 42 44 43 43 45 46 48 50 51 49 47 42 35 35 36 34 32 32 32 32 32 36 37 38 39 38 37
38 38 38 43 44 44 45 44 48 48 47 47 49 52 51 50 48 40 35 35 35 34 33 33 34 36 38 42 41 40 40 38
36 37 38 41 44 46 48 51 49 50 53 52 50 52 53 52 49 44 38 36 36 35 35 34 36 38 40 43 45 44 42 42
33 33 36 35 38 43 45 48 51 50 55 56 59 62 61 57 54 51 48 45 40 38 37 36 35 39 41 42 45 46 46 46
33 31 31 34 39 44 46 42 44 47 51 59 63 68 68 67 63 59 58 55 49 46 46 42 39 38 44 46 45 45 48 50
28 28 29 35 38 42 46 49 51 50 50 53 63 69 75 72 69 67 67 69 68 62 53 50 44 43 46 50 51 51 49 50
25 24 24 25 29 39 43 46 50 54 56 54 58 67 76 81 84 85 83 82 80 78 72 61 53 50 52 52 54 53 55 56
26 25 24 24 27 31 33 40 41 42 50 55 56 59 64 70 81 86 87 87 90 88 83 75 65 63 61 59 58 61 63 65
27 24 22 23 22 23 29 33 32 39 41 46 52 55 57 64 69 74 83 90 91 96 91 92 86 73 70 70 70 69 71 71

GFSFLT2_prec_cthk_207.txt.gz
RH
38 38 43 47 47 46 45 44 43 49 45 39 39 37 35 34 32 31 28 29 29 26 27 31 31 30 32 33 33 33 36 37
41 42 43 47 53 50 45 42 45 48 50 42 50 38 36 35 33 30 29 30 30 28 26 27 28 29 29 30 31 32 34 35
39 43 46 48 50 54 54 49 48 49 50 49 44 39 38 37 34 31 29 29 29 29 27 25 24 26 28 29 30 31 32 34
36 36 40 49 50 52 53 51 49 48 49 60 44 40 39 37 35 33 30 28 28 29 29 25 23 24 25 27 29 31 33 34
35 34 36 37 45 51 48 51 51 47 49 58 51 41 39 37 36 35 33 29 27 27 26 26 23 21 21 23 27 29 32 36
32 33 34 37 37 40 46 48 51 49 49 57 57 47 40 38 37 35 34 33 29 27 25 25 24 22 21 22 27 29 31 32
32 34 34 35 36 35 37 43 51 53 50 54 57 54 44 41 39 37 35 32 31 29 26 25 25 25 24 24 27 28 28 27
35 36 37 37 37 38 37 39 46 53 53 51 56 57 52 43 39 37 35 33 31 31 28 27 27 27 28 27 26 26 27 27
34 34 35 37 38 41 43 44 46 54 52 50 56 59 59 53 42 38 35 33 30 32 32 30 31 31 31 30 29 27 27 27
37 39 37 35 35 36 39 40 43 47 56 58 58 61 60 63 51 40 36 32 31 30 32 34 33 34 33 32 31 29 28 27
38 39 40 41 38 36 37 39 41 44 49 54 57 60 61 61 59 51 41 34 32 31 32 34 33 32 33 34 34 33 33 31
39 41 41 43 43 42 41 41 41 42 44 48 50 59 63 64 62 56 49 41 37 34 33 32 32 31 33 34 36 37 37 35
35 38 42 43 44 44 45 44 45 45 45 47 51 56 60 64 67 68 60 49 42 38 34 33 32 33 34 38 39 40 40 40
35 37 39 39 42 43 46 48 48 51 51 52 54 57 61 63 67 67 65 58 52 46 41 38 35 35 36 41 44 45 44 45
32 32 34 36 40 46 48 46 47 49 51 55 58 60 63 65 68 70 71 68 58 54 49 45 42 40 38 38 45 45 49 48
32 33 33 32 33 38 40 46 51 53 54 55 57 62 64 67 74 76 76 78 72 64 59 56 51 48 48 46 43 43 48 52
29 28 28 28 30 34 36 35 42 46 49 52 58 56 59 67 73 79 80 83 79 74 68 66 64 62 58 56 54 51 49 50
30 28 27 25 24 25 27 33 33 31 35 42 48 55 61 65 68 69 78 85 85 84 83 83 78 75 70 67 60 55 53 51
32 31 28 27 26 24 23 23 26 30 30 32 39 42 45 58 63 63 68 72 75 78 86 88 84 81 74 71 71 63 62 59
32 31 29 27 25 22 20 20 20 22 27 31 34 34 34 40 46 55 59 66 68 71 72 79 88 74 87 79 89 84 82 77